Date,TemperatureHighF,TemperatureAvgF,TemperatureLowF,DewpointHighF,DewpointAvgF,DewpointLowF,HumidityHigh,HumidityAvg,HumidityLow,PressureMaxIn,PressureMinIn,WindSpeedMaxMPH,WindSpeedAvgMPH,GustSpeedMaxMPH,PrecipitationSumIn
2012-1-1,31.5,24.5,15.8,30.2,18.7,5.5,95,78,63,30.14,29.65,16,6,26,0.00
2012-1-2,21.0,10.9,-8.5,7.4,-1.1,-15.2,75,58,41,30.41,30.13,18,6,22,0.00
2012-1-3,20.7,7.5,-10.3,8.9,-2.5,-16.1,82,64,41,30.38,29.79,26,8,34,0.01
2012-1-4,35.4,18.0,6.6,21.5,12.6,2.6,89,80,55,29.99,29.81,10,2,11,0.00
2012-1-5,47.1,32.1,11.8,31.0,23.7,8.5,94,73,46,29.91,29.46,13,5,19,0.00
2012-1-6,51.4,40.4,30.6,29.4,26.6,22.3,83,59,36,29.77,29.48,10,5,21,0.00
2012-1-7,30.6,27.2,22.6,22.3,17.9,10.2,83,68,49,30.11,29.77,10,4,14,0.00
2012-1-8,39.9,28.5,20.5,24.7,21.3,17.4,91,76,45,30.22,29.94,11,5,14,0.00
2012-1-9,48.9,35.8,20.3,26.6,22.5,16.8,87,60,36,29.95,29.74,16,6,23,0.00
2012-1-10,54.7,32.3,17.1,29.5,23.5,14.2,94,73,36,29.91,29.60,23,4,24,0.00
2012-1-11,34.3,25.3,11.7,32.4,22.1,6.5,93,87,77,29.78,29.55,10,3,17,0.05
2012-1-12,11.8,9.6,8.1,6.5,3.4,1.6,84,76,69,29.79,29.70,13,7,19,0.00
2012-1-13,13.6,10.0,6.1,5.1,3.2,-0.2,79,73,67,29.95,29.79,10,3,14,0.00
2012-1-14,15.1,12.3,10.4,7.9,4.4,2.9,77,70,59,30.04,29.95,12,6,17,0.00
2012-2-9,36.3,30.6,21.2,21.8,13.8,6.6,86,52,29,29.96,29.85,18,8,18,0.05
2012-2-10,20.1,9.8,3.4,16.6,-9.8,-18.9,86,42,26,30.42,29.97,15,8,24,0.00
2012-2-11,21.9,7.5,-5.6,-6.7,-12.7,-18.4,54,39,21,30.47,30.35,10,4,17,0.00
2012-2-12,31.1,13.7,-1.3,-4.4,-8.3,-14.4,68,40,13,30.37,30.04,13,4,16,0.00
2012-2-13,30.7,20.9,4.3,21.5,6.9,-7.8,83,55,38,30.04,29.71,15,7,18,0.00
2012-2-14,32.4,27.1,25.5,22.6,21.2,19.5,86,78,62,29.80,29.70,12,5,14,0.00
2012-2-15,40.6,32.8,26.6,29.4,26.5,22.9,89,78,60,29.97,29.79,11,4,14,0.00
2012-2-16,41.4,31.0,23.5,29.3,20.9,14.2,92,68,40,30.02,29.96,9,3,14,0.00
2012-2-17,29.8,24.6,21.6,21.9,17.2,14.6,78,73,66,30.01,29.94,4,1,4,0.00
2012-2-18,38.5,27.2,11.7,12.4,7.9,4.5,76,46,27,30.21,30.12,13,3,16,0.00
2012-2-19,40.5,24.4,5.4,20.5,12.2,0.9,83,62,35,30.14,30.04,17,5,18,0.00
2012-2-20,41.5,33.0,27.0,27.8,18.0,9.8,88,56,28,30.09,29.69,32,12,36,0.02
2012-2-21,36.7,31.9,28.8,31.7,28.3,23.8,95,87,78,29.69,29.39,13,7,20,0.02
2012-2-22,33.4,28.9,25.5,24.8,19.5,16.3,83,68,51,29.44,29.37,7,2,13,0.00
2012-2-23,34.7,26.2,16.3,20.1,17.0,10.2,82,68,51,29.70,29.43,8,2,13,0.00
2012-2-24,27.5,21.8,14.0,18.5,11.3,3.6,83,65,43,29.98,29.67,14,4,19,0.00
2012-2-25,29.7,17.8,6.3,13.1,8.7,1.2,82,67,48,30.17,29.97,11,3,13,0.00
2012-2-26,32.7,27.4,20.5,27.3,17.7,7.5,86,67,44,30.12,29.66,16,7,24,0.00
2012-2-27,36.5,24.2,16.0,22.2,11.7,7.6,83,60,33,30.37,29.86,10,4,16,0.00
2012-2-28,32.4,26.4,19.6,26.0,17.8,10.8,92,70,57,30.35,29.80,9,4,12,0.00
2012-2-29,32.4,29.6,27.9,31.4,27.9,25.3,96,93,86,29.80,29.38,15,8,24,0.06
2012-3-1,40.3,31.7,28.0,30.2,27.5,25.3,94,85,60,29.79,29.68,7,2,9,0.01
2012-3-2,39.2,32.2,26.6,30.9,26.2,19.5,96,79,60,29.76,29.52,10,4,13,0.02
2012-3-3,32.4,25.5,18.1,28.3,21.4,15.0,91,84,65,29.81,29.50,11,3,14,0.01
2012-3-4,29.3,20.3,14.4,15.7,13.1,9.4,89,75,46,30.05,29.81,6,2,8,0.00
2012-3-5,29.1,19.3,-3.3,21.8,12.4,-7.3,86,75,56,30.17,29.88,23,10,28,0.00
2012-3-6,50.9,38.4,27.0,39.8,26.5,19.4,81,63,45,29.88,29.57,21,9,25,0.02
2012-3-7,48.9,39.4,27.7,42.5,34.3,17.7,92,82,65,29.88,29.53,17,4,18,0.12
2012-3-8,37.4,25.7,16.3,24.8,13.4,2.0,86,61,34,30.31,29.88,21,5,27,0.02
2012-3-9,34.2,21.7,4.1,3.9,-1.6,-15.8,75,39,13,30.56,30.17,17,7,21,0.00
2012-3-10,59.0,43.9,28.9,30.2,19.3,2.3,55,39,21,30.17,29.86,23,12,27,0.00
2012-3-11,61.2,50.8,41.0,33.0,28.1,24.8,59,42,29,29.99,29.85,20,8,25,0.00
2012-3-12,49.8,45.0,41.0,44.9,41.6,25.7,97,89,39,29.85,29.60,12,5,16,0.72
2012-3-13,59.4,44.9,31.1,40.2,24.5,2.0,97,55,10,30.03,29.76,12,4,15,0.01
2012-3-14,75.9,56.8,37.8,45.7,37.5,23.3,82,50,29,29.93,29.74,17,6,21,0.00
2012-3-15,66.2,48.0,35.4,30.9,14.3,4.8,77,29,10,30.09,29.93,14,4,14,0.00
2012-3-16,74.5,52.9,30.4,54.3,36.6,13.7,73,54,41,30.02,29.82,22,4,26,0.00
2012-7-21,89.2,88.2,86.7,57.9,56.4,54.3,36,34,33,29.93,29.93,4,3,5,14.72
2012-7-22,89.4,82.3,58.8,73.2,69.0,58.5,99,66,48,29.92,29.75,19,7,24,0.00
2012-7-23,93.9,80.6,68.7,73.4,66.3,58.8,99,66,33,29.86,29.75,7,2,11,0.00
2012-7-24,88.7,75.4,60.4,68.6,62.4,52.8,99,68,31,29.93,29.73,10,3,14,0.00
2012-7-25,87.3,75.9,68.7,74.5,70.2,67.4,99,83,56,29.73,29.48,18,4,23,1.23
2012-7-26,84.4,71.3,63.9,71.1,63.7,54.1,99,81,38,29.72,29.52,9,2,14,0.51
2012-7-27,80.8,68.1,56.8,63.6,60.7,56.0,99,80,47,30.00,29.72,9,4,12,0.00
2012-7-28,83.1,68.6,51.3,64.2,55.4,49.1,99,69,33,30.06,29.92,9,2,13,0.00
2012-7-29,87.8,74.0,62.4,69.7,65.0,58.7,95,75,47,29.94,29.81,12,4,14,0.00
2012-7-30,88.7,75.1,64.6,69.9,65.2,58.2,98,74,36,29.83,29.73,14,5,19,0.00
2012-7-31,90.7,74.0,59.9,68.0,58.7,46.6,99,66,25,29.91,29.82,7,1,11,0.00
2012-8-1,90.7,75.1,65.5,74.4,65.2,58.7,92,72,53,29.83,29.64,16,6,21,0.11
2012-8-19,77.4,66.4,47.3,57.8,41.1,19.9,99,47,13,29.95,29.89,8,3,13,1.43
2012-8-20,47.8,44.7,41.7,46.9,44.2,41.3,99,98,95,29.95,29.93,1,0,2,0.00
2012-8-31,79.3,65.3,54.5,54.6,49.9,38.2,88,62,23,29.98,29.92,4,0,5,0.00
2012-9-1,83.5,66.3,48.2,57.4,49.4,40.9,97,62,23,30.02,29.88,6,2,11,0.00
2012-9-2,72.0,57.4,50.7,58.4,53.6,49.9,98,88,56,29.89,29.81,13,2,16,0.00
2012-9-4,90.9,77.2,56.5,68.8,59.8,46.1,98,59,23,29.69,29.54,18,6,25,0.00
2012-9-5,78.3,66.3,56.1,63.5,54.7,44.5,98,70,33,29.69,29.57,16,2,17,0.17
2012-9-6,79.5,63.2,50.0,58.2,50.5,41.6,98,70,28,29.77,29.68,9,2,16,0.09
2012-9-7,67.3,57.2,49.3,58.0,51.5,46.1,99,83,51,29.80,29.72,8,2,15,0.14
2012-9-8,66.2,54.3,45.5,55.8,49.8,44.2,99,85,56,29.82,29.59,12,3,22,0.11
2012-9-9,71.8,57.9,45.5,54.9,47.6,41.6,99,74,34,29.98,29.82,6,1,11,0.00
2012-9-10,77.0,64.6,48.7,53.1,49.3,44.1,99,62,33,29.91,29.64,29,13,36,0.01
2012-9-11,88.0,73.7,62.2,57.8,52.4,44.3,73,49,23,29.66,29.50,21,14,30,0.00
2012-9-12,76.8,59.8,53.2,56.3,47.9,34.1,90,66,32,30.01,29.61,10,4,16,0.00
2012-9-13,72.5,58.4,47.5,50.6,36.3,12.5,93,55,10,30.11,30.00,9,2,14,0.00
2012-9-14,70.3,56.3,39.6,46.8,39.3,29.8,94,58,23,30.15,30.08,6,2,10,0.00
2012-9-15,76.3,58.3,41.4,53.0,46.2,39.9,96,68,33,30.10,29.74,13,4,19,0.00
2012-9-16,79.9,67.8,59.5,55.0,48.0,38.5,74,51,29,29.76,29.66,14,5,14,0.00
2012-9-17,61.9,52.0,39.0,47.9,38.5,26.3,91,64,27,29.79,29.71,11,3,16,0.01
2012-9-18,59.7,45.2,32.5,37.9,27.3,11.7,96,60,16,29.82,29.70,11,2,14,0.00
2012-9-19,68.7,53.9,40.1,51.1,41.3,30.3,87,63,43,29.70,29.37,24,10,29,0.04
2012-9-20,60.4,52.7,46.4,44.5,39.7,30.6,91,63,33,29.67,29.55,9,4,19,0.04
2012-9-21,61.3,49.6,37.6,48.1,38.4,25.7,99,72,27,29.65,29.55,10,3,15,0.34
2012-9-22,54.9,43.9,35.6,42.5,36.3,30.2,99,77,39,30.00,29.62,11,4,19,0.04
2012-9-23,58.3,43.9,30.4,37.5,30.0,21.1,94,63,24,30.07,29.91,7,2,12,0.00
2012-9-24,74.3,54.3,37.2,41.4,33.2,26.6,83,51,18,29.91,29.48,15,6,24,0.00
2012-9-25,52.0,49.3,46.4,40.8,40.2,39.4,77,71,62,29.65,29.62,5,3,8,0.00
2012-10-6,42.3,37.9,32.5,22.8,20.6,18.3,61,50,39,30.00,29.98,6,1,9,0.00
2012-10-7,51.3,38.7,26.2,27.5,21.5,10.3,92,55,20,29.99,29.68,16,6,22,0.00
2012-10-8,51.4,43.9,37.8,44.4,32.1,20.8,87,64,44,29.68,29.37,24,11,29,0.02
2012-10-9,48.0,42.0,35.1,39.5,33.6,24.3,92,74,42,29.72,29.49,12,5,17,0.01
2012-10-10,48.7,39.3,30.4,33.6,26.6,18.8,91,64,31,29.84,29.71,8,3,16,0.00
2012-10-11,47.3,37.4,27.0,35.2,27.7,18.8,97,71,36,30.16,29.68,10,4,15,0.02
2012-10-12,48.2,35.9,21.4,28.8,19.4,7.8,93,57,20,30.25,29.87,18,6,27,0.00
2012-10-13,50.2,45.4,39.7,47.1,40.8,16.5,99,86,30,29.87,29.52,24,6,30,0.00
2012-10-14,52.0,44.1,34.9,45.9,38.3,30.7,99,82,47,29.67,29.57,11,5,17,0.00
2012-10-15,58.1,45.4,29.5,38.9,34.3,28.7,99,69,41,29.75,29.57,12,3,14,0.00
2012-10-16,63.7,55.2,52.0,46.6,41.9,35.1,74,61,50,29.57,29.28,18,11,20,0.00